• Join FlightAware (Why Join?)
  • Login
  • US Flag 
07:41PM EDT


 

Airport Tracker/Info


-or-


 

Live Flight TrackerFlight Track Log ✈ N682RW ✈ 09-May-2013 ✈ KIAD - KDTW

Flight Track Log - Related Links

Times and Time Zones

All times are in EDT time to prevent confusion due to time zone crossing. See the N682RW flight status page for this flight to view local times or setup timezone preferences in your user account.

Time Position Orientation Groundspeed Altitude Reporting Facility
EDT Latitude Longitude Course Direction KTS MPH feet Rate Location/Type
09:45PM 38.9667 -77.5167 288° West 209 241 2,400  Level Potomac TRACON
09:47PM 39.0658 -77.5753 335° Northwest 265 305 7,300 3,060 Climbing Washington Center
09:48PM 39.1217 -77.6089 335° Northwest 260 299 10,200 2,160 Climbing Washington Center
09:49PM 39.1981 -77.6539 335° Northwest 267 307 11,700 2,280 Climbing Washington Center
09:50PM 39.2867 -77.7100 334° Northwest 311 358 14,900 2,880 Climbing Washington Center
09:51PM 39.4536 -77.5977 288° West  Level FlightAware Approximate
09:51PM 39.3775 -77.7636 335° Northwest 340 391 17,400  Level Washington Center
09:52PM 39.4700 -77.8203 335° Northwest 356 410 19,600 2,100 Climbing Washington Center
09:54PM 39.6081 -78.0825 304° West 371 427 24,300 1,980 Climbing Cleveland Center
09:55PM 39.6467 -78.2214 290° West 393 452 26,200 1,800 Climbing Cleveland Center
09:56PM 39.6889 -78.3603 292° West 404 465 27,900 1,680 Climbing Cleveland Center
09:57PM 39.7292 -78.5019 290° West 416 479 29,600 1,680 Climbing Cleveland Center
09:58PM 39.7669 -78.6250 292° West 416 479 31,300 1,740 Climbing Cleveland Center
09:59PM 39.8047 -78.7725 288° West 410 472 33,100 1,320 Climbing Cleveland Center
10:00PM 39.8422 -78.9042 290° West 397 457 34,000 420 Climbing Cleveland Center
10:01PM 39.8836 -79.0328 293° West 391 450 34,000  Level Cleveland Center
10:02PM 39.9208 -79.1619 291° West 385 443 34,000  Level Cleveland Center
10:03PM 39.9556 -79.2939 289° West 385 443 34,000  Level Cleveland Center
10:04PM 40.0069 -79.4175 299° West 385 443 34,000  Level Cleveland Center
10:05PM 40.0644 -79.5306 304° West 385 443 34,000  Level Cleveland Center
10:06PM 40.1239 -79.6464 304° West 385 443 34,000  Level Cleveland Center
10:07PM 40.1831 -79.7625 304° West 385 443 34,000  Level Cleveland Center
10:08PM 40.2400 -79.8758 303° West 385 443 34,000  Level Cleveland Center
10:09PM 40.2992 -79.9925 304° West 385 443 34,000 -60 Level Cleveland Center
10:10PM 40.3558 -80.1117 302° West 385 443 33,900 -600 Descending Cleveland Center
10:11PM 40.4147 -80.2286 304° West 385 443 32,900 -1,020 Descending Cleveland Center
10:12PM 40.4714 -80.3456 303° West 385 443 31,900 -960 Descending Cleveland Center
10:13PM 40.5300 -80.4519 306° West 390 449 31,000 -900 Descending Cleveland Center
10:14PM 40.5903 -80.5722 303° West 396 456 30,200 -540 Descending Cleveland Center
10:15PM 40.6508 -80.6981 302° West 402 463 30,000 -120 Descending Cleveland Center
10:16PM 40.7131 -80.8186 304° West 402 463 30,000  Level Cleveland Center
10:17PM 40.7733 -80.9422 303° West 402 463 30,000  Level Cleveland Center
10:18PM 40.8333 -81.0689 302° West 402 463 30,000  Level Cleveland Center
10:19PM 40.8931 -81.1956 302° West 413 475 30,000 -300 Level Cleveland Center
10:20PM 40.9611 -81.3364 303° West 413 475 29,400 -780 Descending Cleveland Center
10:21PM 41.0228 -81.4639 303° West 413 475 28,500 -840 Descending Cleveland Center
10:22PM 41.0842 -81.5886 303° West 407 468 27,800 -840 Descending Cleveland Center
10:23PM 41.1394 -81.6969 304° West 406 467 26,900 -960 Descending Cleveland Center
10:24PM 41.1967 -81.8139 303° West 395 455 25,900 -1,020 Descending Cleveland Center
10:25PM 41.2494 -81.9308 301° West 385 443 24,900 -900 Descending Cleveland Center
10:26PM 41.3064 -82.0425 304° West 380 437 24,100 -900 Descending Cleveland Center
10:27PM 41.3569 -82.1628 299° West 370 426 23,100 -1,380 Descending Cleveland Center
10:28PM 41.4222 -82.2722 309° West 370 426 21,400 -2,040 Descending Cleveland Center
10:29PM 41.4853 -82.3792 308° West 370 426 19,100 -2,280 Descending Cleveland Center
10:30PM 41.5258 -82.4414 311° West 366 421 17,900 -2,100 Descending Cleveland Center
10:30PM 41.5542 -82.4922 307° West 370 426 17,000 -2,220 Descending Cleveland Center
10:31PM 41.5947 -82.5600 309° West 348 400 15,500 -2,100 Descending Cleveland Center
10:31PM 41.6108 -82.5883 307° West 359 413 14,900 -2,100 Descending Cleveland Center
10:32PM 41.6536 -82.6564 310° West 337 388 13,400 -2,220 Descending Cleveland Center
10:32PM 41.6694 -82.6903 302° West 347 399 12,700 -1,380 Descending Cleveland Center
10:33PM 41.7100 -82.7556 310° West 332 382 12,000 -720 Descending Cleveland Center
10:33PM 41.7283 -82.7839 311° West 342 394 12,000  Level Cleveland Center
10:34PM 41.7750 -82.8411 318° Northwest 334 384 12,000  Level Cleveland Center
10:34PM 41.7956 -82.8669 317° Northwest 332 382 12,000  Level Cleveland Center
10:35PM 41.8586 -82.9444 318° Northwest 332 382 12,000 -360 Level Cleveland Center
10:36PM 41.9181 -82.9886 331° Northwest 293 337 11,400 -1,020 Descending Cleveland Center
10:36PM 41.9389 -82.9894 358° North 305 351 10,900 -1,680 Descending Cleveland Center
10:37PM 42.0072 -83.0117 346° North 295 339 9,600 -1,680 Descending Cleveland Center
10:38PM 42.0839 -83.0369 346° North 288 331 7,900 -1,380 Descending Cleveland Center
10:39PM 42.1603 -83.0650 345° North 274 315 6,800 -1,380 Descending Cleveland Center
10:40PM 42.2286 -83.0900 345° North 236 272 5,200 -1,680 Descending Cleveland Center
10:41PM 42.2844 -83.1036 350° North 239 275 3,600 -1,080 Descending Cleveland Center
10:42PM 42.3350 -83.1731 315° West 198 228 3,000 -300 Descending Cleveland Center
10:43PM 42.3381 -83.2264 274° West 176 203 3,000 -240 Level Cleveland Center
10:44PM 42.3058 -83.2728 227° Southwest 143 165 2,600 -600 Descending Cleveland Center
10:45PM 42.2761 -83.2969 211° Southwest 128 147 1,900 -720 Descending Cleveland Center
10:46PM 42.2442 -83.3181 206° Southwest 121 139 1,200 -720 Descending Cleveland Center
10:48PM 42.2124 -83.3534 323° Northwest  Level Estimated